DMSP 5D-2 F13 DEB, 42285

Orbit data source: Space-Track

DMSP 5D-2 F13 DEB, 42285 is space debris in SSO originally from a launch on Fri, 24 Mar 1995 UTC launched from the Air Force Western Test Range (AFWTR). Debris objects in space refer to the collection of defunct objects orbiting the Earth. Examples of debris include non-operational satellites, rocket bodies, and fragments generated from explosions, collisions, or faulty payload assembly.

Loading next visibility...
Identifier
42285, 1995-015HB
Orbit
SSO
Country
Flag of USUS
Related business
Manufacturer
Unknown
Mission
Spacecraft
Bus & Motor
Unknown
Mass
Unknown
Launch date (UTC)
1995-03-24 (31 years ago)
Launch vehicle
Unknown
Launch site
Air Force Western Test Range (AFWTR)
Object type
Payload
Rocket body
Debris
Shape & HBR
Unknown shape, 0.1 m
Radar Cross Section
Small (<0.1 m²)

Expand to show TLE details & history
Last TLE update: 1 day ago

TLE from 1 day ago
0 DMSP 5D-2 F13 DEB
1 42285U 95015HB  26126.35545472  .00003315  00000-0  13718-2 0  9997
2 42285  98.8967 157.6712 0033804 147.2064 213.1223 14.27024098561891
Epoch: 2026-05-06T08:31Z
TLE epoch observation values (Epoch: 2026-05-06T08:31:51.287Z)
Latitude
-0.00004°
Longitude
165.49038°
Altitude
824.969 km
Speed
7.43 km/s
True Right ascension
10h 30m 41s
True Declination
0° 00' 00"
Sunlit
Object was in daylight at epoch
Visualization orbit readout
Latitude
Unknown
Longitude
Unknown
Altitude
Unknown
Speed
Unknown
Apparent Right ascension
Unknown
Apparent Declination
Unknown
Sunlit
N/A
Visualization observer readout
Local Sidereal Time
23:44:49
Azimuth
Unknown
Elevation
Unknown
Doppler factor
Unknown
Orbital elements
Apogee altitude
823.115 km
Perigee altitude
774.592 km
Semi-major axis
7,176.991 km
Eccentricity
0.00338
Inclination
98.8967°
RAAN
157.6712°
Arg. of periapsis
147.2064°
True anomaly
212.91138°
Mean anomaly
213.1223°
Eccentric anomaly
213.01677°
Mean motion
3.56968 °/min
Orbital period
100.85 mins
BSTAR
0.0013718

Documentation

Showing up to 5 results
|